�������l�o���
Date,Time,MP-1(��Sv/h),MP-2(��Sv/h),MP-3(��Sv/h),MP-4(��Sv/h),MP-5(��Sv/h),MP-6(��Sv/h),MP-7(��Sv/h),MP-8(��Sv/h),����,����(m/s),���J
2018/09/01,00:00,0.810,1.188,0.842,1.502,1.082,0.471,0.817,0.774,��,2.2,��
2018/09/01,00:10,0.810,1.185,0.844,1.498,1.085,0.471,0.818,0.773,��,2.9,��
2018/09/01,00:20,0.810,1.185,0.845,1.498,1.083,0.470,0.819,0.774,��,4.6,��
2018/09/01,00:30,0.812,1.188,0.843,1.501,1.082,0.470,0.816,0.775,���k��,3.3,��
2018/09/01,00:40,0.811,1.187,0.845,1.499,1.084,0.470,0.818,0.776,�k�k��,3.0,��
2018/09/01,00:50,0.811,1.188,0.843,1.502,1.086,0.471,0.817,0.774,�k�k��,6.5,��
2018/09/01,01:00,0.812,1.190,0.846,1.500,1.084,0.469,0.818,0.774,�k,4.9,��
2018/09/01,01:10,0.811,1.187,0.842,1.501,1.086,0.471,0.818,0.776,�k,4.0,��
2018/09/01,01:20,0.811,1.188,0.844,1.503,1.086,0.470,0.818,0.776,�k�k��,3.0,��
2018/09/01,01:30,0.811,1.188,0.843,1.500,1.087,0.470,0.818,0.774,�k�k��,4.1,��
2018/09/01,01:40,0.813,1.189,0.846,1.499,1.086,0.470,0.819,0.774,�k,4.4,��
2018/09/01,01:50,0.811,1.187,0.844,1.500,1.084,0.469,0.818,0.776,�k,4.9,��
2018/09/01,02:00,0.811,1.186,0.843,1.501,1.084,0.468,0.818,0.775,�k,5.1,��
2018/09/01,02:10,0.811,1.188,0.845,1.501,1.084,0.469,0.818,0.773,�k,4.3,��
2018/09/01,02:20,0.809,1.187,0.843,1.500,1.082,0.469,0.817,0.775,�k,4.2,��
2018/09/01,02:30,0.808,1.188,0.842,1.499,1.085,0.468,0.815,0.774,�k,3.2,��
2018/09/01,02:40,0.811,1.184,0.846,1.500,1.085,0.469,0.817,0.776,�k,3.5,��
2018/09/01,02:50,0.811,1.189,0.843,1.498,1.082,0.467,0.816,0.775,�k,3.5,��
2018/09/01,03:00,0.810,1.187,0.844,1.499,1.084,0.468,0.817,0.774,�k�k��,2.6,��
2018/09/01,03:10,0.812,1.186,0.845,1.502,1.084,0.468,0.816,0.775,�k�k��,1.9,��
2018/09/01,03:20,0.810,1.186,0.843,1.503,1.083,0.469,0.817,0.776,�k�k��,2.5,��
2018/09/01,03:30,0.811,1.188,0.844,1.501,1.082,0.468,0.819,0.774,�k,2.3,��
2018/09/01,03:40,0.809,1.185,0.843,1.498,1.085,0.468,0.816,0.775,�k�k��,2.3,��
2018/09/01,03:50,0.809,1.189,0.844,1.503,1.084,0.469,0.817,0.774,�k�k��,2.5,��
2018/09/01,04:00,0.811,1.187,0.844,1.502,1.084,0.468,0.817,0.777,�k,2.8,��
2018/09/01,04:10,0.811,1.187,0.843,1.500,1.086,0.468,0.815,0.775,�k,3.3,��
2018/09/01,04:20,0.810,1.192,0.843,1.501,1.083,0.469,0.817,0.775,�k,2.6,��
2018/09/01,04:30,0.812,1.190,0.842,1.498,1.083,0.467,0.817,0.775,�k,3.2,�L
2018/09/01,04:40,0.810,1.182,0.842,1.501,1.085,0.468,0.817,0.774,�k,3.2,�L
2018/09/01,04:50,0.806,1.183,0.841,1.500,1.082,0.467,0.815,0.774,�k,3.0,�L
2018/09/01,05:00,0.809,1.182,0.843,1.497,1.084,0.468,0.818,0.774,�k,2.0,�L
2018/09/01,05:10,0.805,1.179,0.840,1.500,1.079,0.467,0.816,0.773,�k,2.0,�L
2018/09/01,05:20,0.802,1.171,0.836,1.494,1.074,0.467,0.814,0.770,�k�k��,2.0,�L
2018/09/01,05:30,0.804,1.169,0.835,1.492,1.071,0.467,0.812,0.771,�k�k��,2.3,�L
2018/09/01,05:40,0.801,1.168,0.834,1.492,1.070,0.467,0.812,0.771,�k�k��,2.3,�L
2018/09/01,05:50,0.799,1.169,0.836,1.489,1.070,0.464,0.812,0.769,�k,1.5,�L
2018/09/01,06:00,0.802,1.165,0.837,1.491,1.070,0.466,0.811,0.768,�k�k��,0.9,�L
2018/09/01,06:10,0.799,1.167,0.833,1.487,1.070,0.466,0.812,0.769,�k�k��,0.8,�L
2018/09/01,06:20,0.799,1.162,0.835,1.488,1.068,0.466,0.809,0.767,�쓌,2.5,�L
2018/09/01,06:30,0.798,1.161,0.833,1.483,1.066,0.465,0.810,0.768,�k��,2.8,�L
2018/09/01,06:40,0.796,1.158,0.833,1.481,1.066,0.465,0.811,0.769,�k,3.9,�L
2018/09/01,06:50,0.796,1.156,0.832,1.482,1.066,0.464,0.808,0.767,�k�k��,2.2,�L
2018/09/01,07:00,0.797,1.154,0.829,1.480,1.066,0.465,0.809,0.766,�k�k��,2.0,�L
2018/09/01,07:10,0.800,1.156,0.828,1.479,1.063,0.465,0.807,0.766,�k,4.1,�L
2018/09/01,07:20,0.798,1.158,0.828,1.479,1.062,0.465,0.808,0.766,�k,3.8,�L
2018/09/01,07:30,0.798,1.155,0.828,1.478,1.066,0.465,0.810,0.765,�k,3.5,�L
2018/09/01,07:40,0.800,1.159,0.830,1.478,1.066,0.464,0.810,0.766,�k�k��,2.6,��
2018/09/01,07:50,0.799,1.158,0.829,1.479,1.067,0.463,0.808,0.766,�k,2.2,��
2018/09/01,08:00,0.799,1.162,0.829,1.480,1.065,0.464,0.809,0.765,�k,2.3,��
2018/09/01,08:10,0.799,1.162,0.831,1.481,1.068,0.464,0.810,0.768,�k,2.0,��
2018/09/01,08:20,0.800,1.161,0.831,1.481,1.066,0.464,0.809,0.768,�k�k��,2.2,��
2018/09/01,08:30,0.801,1.161,0.831,1.478,1.067,0.465,0.812,0.767,�k�k��,2.6,��
2018/09/01,08:40,0.800,1.160,0.829,1.480,1.068,0.463,0.809,0.768,�k,3.9,�L
2018/09/01,08:50,0.798,1.160,0.832,1.479,1.069,0.463,0.810,0.766,�k,3.7,�L
2018/09/01,09:00,0.797,1.161,0.829,1.482,1.067,0.463,0.810,0.767,�k�k��,3.4,��
2018/09/01,09:10,0.798,1.158,0.830,1.482,1.070,0.462,0.810,0.768,�k�k��,4.0,��
2018/09/01,09:20,0.799,1.161,0.828,1.482,1.067,0.462,0.809,0.767,�k�k��,3.4,��
2018/09/01,09:30,0.800,1.159,0.832,1.479,1.068,0.463,0.810,0.767,�k�k��,4.0,��
2018/09/01,09:40,0.799,1.161,0.831,1.482,1.069,0.463,0.811,0.769,�k�k��,3.6,��
2018/09/01,09:50,0.801,1.160,0.832,1.483,1.072,0.464,0.811,0.768,�k�k��,3.6,��
2018/09/01,10:00,0.800,1.159,0.831,1.485,1.070,0.463,0.811,0.769,�k,3.4,��
2018/09/01,10:10,0.801,1.161,0.833,1.487,1.070,0.464,0.812,0.769,�k�k��,3.5,�L
2018/09/01,10:20,0.800,1.161,0.832,1.486,1.071,0.464,0.811,0.768,�k�k��,4.2,�L
2018/09/01,10:30,0.801,1.164,0.832,1.486,1.071,0.462,0.811,0.769,�k�k��,3.7,��
2018/09/01,10:40,0.802,1.161,0.832,1.484,1.071,0.464,0.811,0.769,�k��,4.0,��
2018/09/01,10:50,0.799,1.163,0.834,1.484,1.072,0.463,0.811,0.768,�k��,4.0,��
2018/09/01,11:00,0.803,1.165,0.831,1.489,1.072,0.465,0.810,0.768,�k��,3.8,��
2018/09/01,11:10,0.801,1.165,0.830,1.485,1.072,0.464,0.811,0.768,�k��,3.7,��
2018/09/01,11:20,0.798,1.163,0.833,1.487,1.071,0.464,0.812,0.769,�k��,4.9,�L
2018/09/01,11:30,0.802,1.164,0.833,1.487,1.072,0.465,0.813,0.769,�k�k��,3.6,�L
2018/09/01,11:40,0.800,1.163,0.833,1.487,1.069,0.466,0.813,0.769,�k�k��,2.5,�L
2018/09/01,11:50,0.800,1.162,0.831,1.486,1.072,0.463,0.812,0.768,�k�k��,2.9,�L
2018/09/01,12:00,0.799,1.163,0.831,1.483,1.072,0.464,0.811,0.769,�k�k��,2.5,�L
2018/09/01,12:10,0.800,1.163,0.832,1.489,1.072,0.465,0.812,0.769,�k,0.8,�L
2018/09/01,12:20,0.799,1.161,0.833,1.487,1.072,0.466,0.813,0.767,�k�k��,2.0,�L
2018/09/01,12:30,0.801,1.164,0.833,1.486,1.072,0.467,0.811,0.768,�k,1.1,�L
2018/09/01,12:40,0.801,1.163,0.834,1.488,1.074,0.466,0.812,0.768,�k,2.6,�L
2018/09/01,12:50,0.800,1.163,0.836,1.490,1.075,0.466,0.813,0.770,�k,2.8,�L
2018/09/01,13:00,0.801,1.162,0.832,1.485,1.075,0.466,0.813,0.769,�k,2.5,�L
2018/09/01,13:10,0.799,1.162,0.833,1.489,1.073,0.465,0.813,0.768,�k,2.0,�L
2018/09/01,13:20,0.800,1.162,0.833,1.488,1.073,0.464,0.812,0.769,�k��,3.4,��
2018/09/01,13:30,0.800,1.166,0.835,1.488,1.074,0.465,0.813,0.770,�k�k��,2.3,�L
2018/09/01,13:40,0.800,1.164,0.831,1.486,1.072,0.465,0.812,0.768,�k�k��,2.0,�L
2018/09/01,13:50,0.801,1.166,0.830,1.490,1.070,0.464,0.814,0.770,���k��,2.0,��
2018/09/01,14:00,0.801,1.165,0.831,1.488,1.072,0.465,0.811,0.769,�k�k��,3.0,��
2018/09/01,14:10,0.800,1.163,0.833,1.488,1.073,0.466,0.813,0.769,�k�k��,2.6,��
2018/09/01,14:20,0.803,1.164,0.832,1.487,1.069,0.465,0.814,0.769,�k�k��,2.3,�L
2018/09/01,14:30,0.800,1.165,0.832,1.489,1.072,0.465,0.812,0.770,�k��,2.2,��
2018/09/01,14:40,0.802,1.166,0.829,1.489,1.072,0.464,0.813,0.770,�k�k��,0.6,�L
2018/09/01,14:50,0.802,1.166,0.833,1.488,1.071,0.463,0.815,0.769,�k�k��,1.5,�L
2018/09/01,15:00,0.802,1.167,0.833,1.486,1.072,0.465,0.813,0.767,�k�k��,1.7,�L
2018/09/01,15:10,0.801,1.167,0.833,1.490,1.072,0.464,0.814,0.769,�k��,1.9,�L
2018/09/01,15:20,0.803,1.169,0.832,1.491,1.077,0.464,0.813,0.769,�k,2.6,�L
2018/09/01,15:30,0.803,1.171,0.833,1.490,1.074,0.466,0.813,0.769,�k�k��,2.6,��
2018/09/01,15:40,0.800,1.173,0.833,1.490,1.076,0.465,0.814,0.770,�k,2.2,��
2018/09/01,15:50,0.803,1.172,0.834,1.489,1.075,0.465,0.813,0.771,�k�k��,2.0,�L
2018/09/01,16:00,0.803,1.173,0.835,1.491,1.075,0.465,0.813,0.771,�k�k��,1.7,�L
2018/09/01,16:10,0.804,1.175,0.834,1.489,1.074,0.464,0.813,0.771,�k�k��,0.8,�L
2018/09/01,16:20,0.802,1.174,0.836,1.492,1.077,0.465,0.815,0.772,�k�k��,0.9,�L
2018/09/01,16:30,0.802,1.171,0.834,1.491,1.075,0.467,0.814,0.771,�k�k��,0.9,�L
2018/09/01,16:40,0.802,1.173,0.835,1.490,1.075,0.467,0.813,0.771,�k�k��,0.6,��
2018/09/01,16:50,0.801,1.173,0.835,1.491,1.076,0.466,0.813,0.770,�k�k��,1.1,��
2018/09/01,17:00,0.801,1.173,0.834,1.491,1.074,0.466,0.813,0.770,�k�k��,0.9,��
2018/09/01,17:10,0.800,1.174,0.834,1.490,1.073,0.466,0.814,0.770,�k��,0.9,��
2018/09/01,17:20,0.802,1.175,0.835,1.489,1.074,0.465,0.815,0.768,�k��,1.7,��
2018/09/01,17:30,0.803,1.172,0.835,1.491,1.073,0.466,0.815,0.770,�k��,1.7,��
2018/09/01,17:40,0.803,1.170,0.837,1.492,1.074,0.466,0.814,0.773,�k��,3.1,��
2018/09/01,17:50,0.803,1.173,0.837,1.490,1.074,0.468,0.814,0.769,�k��,3.8,��
2018/09/01,18:00,0.802,1.174,0.836,1.493,1.073,0.466,0.812,0.773,�k��,4.3,��
2018/09/01,18:10,0.801,1.173,0.836,1.492,1.075,0.465,0.813,0.770,�k��,4.3,��
2018/09/01,18:20,0.802,1.177,0.835,1.494,1.074,0.465,0.814,0.771,�k��,4.5,��
2018/09/01,18:30,0.803,1.173,0.834,1.494,1.075,0.466,0.814,0.773,�k��,4.5,��
2018/09/01,18:40,0.802,1.173,0.836,1.490,1.074,0.467,0.814,0.771,�k�k��,4.5,��
2018/09/01,18:50,0.803,1.177,0.836,1.493,1.075,0.466,0.814,0.771,�k��,4.5,��
2018/09/01,19:00,0.804,1.177,0.836,1.494,1.074,0.467,0.813,0.772,�k��,4.7,��
2018/09/01,19:10,0.803,1.175,0.838,1.493,1.074,0.465,0.815,0.771,�k��,4.4,��
2018/09/01,19:20,0.805,1.175,0.836,1.491,1.079,0.467,0.815,0.771,�k��,5.1,��
2018/09/01,19:30,0.805,1.176,0.835,1.495,1.077,0.467,0.813,0.773,�k��,4.7,��
2018/09/01,19:40,0.804,1.176,0.837,1.493,1.076,0.465,0.814,0.772,�k��,5.4,��
2018/09/01,19:50,0.803,1.176,0.838,1.495,1.076,0.467,0.815,0.771,�k��,4.2,��
2018/09/01,20:00,0.805,1.178,0.836,1.491,1.076,0.466,0.813,0.770,�k��,4.4,��
2018/09/01,20:10,0.804,1.175,0.838,1.494,1.077,0.468,0.814,0.770,�k��,3.9,��
2018/09/01,20:20,0.804,1.177,0.838,1.494,1.076,0.467,0.814,0.773,�k��,4.0,��
2018/09/01,20:30,0.803,1.176,0.839,1.494,1.076,0.466,0.815,0.773,�k��,3.9,��
2018/09/01,20:40,0.806,1.177,0.838,1.494,1.072,0.468,0.813,0.773,�k�k��,3.9,��
2018/09/01,20:50,0.805,1.176,0.836,1.494,1.075,0.467,0.815,0.773,�k�k��,4.9,��
2018/09/01,21:00,0.805,1.177,0.838,1.494,1.079,0.467,0.814,0.771,�k�k��,3.9,��
2018/09/01,21:10,0.805,1.176,0.837,1.495,1.076,0.467,0.814,0.773,�k�k��,4.0,��
2018/09/01,21:20,0.803,1.176,0.835,1.497,1.076,0.467,0.816,0.771,�k�k��,4.1,��
2018/09/01,21:30,0.804,1.176,0.837,1.496,1.077,0.468,0.815,0.773,�k�k��,4.1,��
2018/09/01,21:40,0.805,1.177,0.838,1.495,1.076,0.467,0.814,0.772,�k�k��,4.3,��
2018/09/01,21:50,0.807,1.176,0.836,1.494,1.077,0.468,0.814,0.771,�k,4.6,��
2018/09/01,22:00,0.805,1.175,0.839,1.493,1.074,0.468,0.815,0.774,�k,4.0,��
2018/09/01,22:10,0.804,1.176,0.837,1.493,1.075,0.467,0.814,0.773,�k�k��,3.4,��
2018/09/01,22:20,0.805,1.176,0.838,1.494,1.076,0.466,0.814,0.771,�k�k��,2.6,��
2018/09/01,22:30,0.804,1.176,0.835,1.495,1.075,0.468,0.815,0.772,�k�k��,2.0,��
2018/09/01,22:40,0.804,1.176,0.836,1.493,1.076,0.466,0.815,0.772,�k�k��,1.5,��
2018/09/01,22:50,0.806,1.176,0.836,1.494,1.077,0.467,0.815,0.773,�k�k��,1.2,��
2018/09/01,23:00,0.803,1.174,0.838,1.495,1.077,0.468,0.815,0.772,�k,1.4,��
2018/09/01,23:10,0.806,1.176,0.837,1.492,1.078,0.467,0.815,0.771,�k,1.5,��
2018/09/01,23:20,0.808,1.177,0.836,1.494,1.078,0.467,0.816,0.772,�k,1.7,��
2018/09/01,23:30,0.804,1.179,0.837,1.494,1.075,0.468,0.815,0.771,�k,1.5,��
2018/09/01,23:40,0.803,1.176,0.837,1.496,1.076,0.468,0.815,0.772,�k,1.2,��
2018/09/01,23:50,0.805,1.176,0.839,1.493,1.076,0.468,0.813,0.772,�k,1.2,��
